EW7899 Weather Reports


Display with metric or nautical units.
time (UTC)temp
F
wind
direction
speed
MPH
gust
MPH
rain 1hr
in
rain 24hr
in
rain mn
in
humidity
%
barometer
mb
20260902110021 57 71 0.0 0.0 0.00 0.00 0.00 95 1015.6
20260902104515 57 72 0.0 0.0 0.00 0.00 0.00 95 1015.5
20260902103022 57 70 0.0 0.0 0.00 0.00 0.00 95 1015.4
20260902101513 57 70 0.0 0.0 0.00 0.00 0.00 95 1015.3
20260902100021 57 70 0.0 0.0 0.00 0.01 0.00 95 1015.2
20260902094509 57 70 0.0 0.0 0.00 0.01 0.00 95 1015.1
20260902093024 57 70 0.0 0.0 0.00 0.01 0.00 95 1014.9
20260902091510 58 71 0.0 0.0 0.00 0.01 0.00 95 1015.0
20260902090020 58 72 0.0 0.0 0.00 0.01 0.00 95 1015.0
20260902084516 58 72 0.0 0.0 0.00 0.01 0.00 95 1015.0
20260902083020 58 70 0.0 0.0 0.00 0.01 0.00 95 1015.0
20260902081508 59 71 0.0 0.0 0.00 0.01 0.00 95 1015.2
20260902080018 59 70 0.0 0.0 0.00 0.01 0.00 95 1015.1
20260902074515 59 70 0.0 0.0 0.00 0.01 0.00 95 1015.1
20260902073023 60 70 0.0 0.0 0.00 0.01 0.00 94 1015.0
20260902071510 60 70 0.0 0.0 0.00 0.01 0.00 94 1015.0
20260902070021 61 73 0.0 0.0 0.00 0.01 0.00 94 1015.0
20260902064512 61 70 0.0 0.0 0.00 0.01 0.00 95 1015.0
20260902063021 61 70 0.0 0.0 0.00 0.01 0.00 94 1015.0
20260902061516 62 70 0.0 0.0 0.00 0.01 0.00 94 1015.0
20260902060017 62 70 0.0 0.0 0.00 0.01 0.00 95 1015.0
20260902054505 62 71 0.0 0.0 0.00 0.01 0.00 95 1014.9
20260902053015 62 71 0.0 0.0 0.00 0.01 0.00 95 1014.8
20260902051507 62 70 0.0 0.0 0.00 0.01 0.00 95 1014.9
20260902050032 62 73 0.0 0.0 0.00 0.01 0.00 95 1014.9
20260902044505 62 72 0.0 0.0 0.00 0.01 0.00 95 1014.8
20260902043019 62 70 0.0 0.0 0.00 0.01 0.00 95 1014.8
20260902041505 62 70 0.0 0.0 0.00 0.01 0.00 94 1014.7
20260902040019 62 70 0.0 0.0 0.00 0.01 0.01 94 1014.7
20260902034523 62 72 0.0 0.0 0.00 0.01 0.01 94 1014.4
20260902033012 63 70 0.0 0.0 0.00 0.01 0.01 93 1014.2
20260902031524 63 72 0.0 0.0 0.00 0.01 0.01 93 1014.0
20260902030013 63 70 0.0 0.0 0.00 0.01 0.01 93 1013.9
20260902024533 64 70 0.0 0.0 0.00 0.01 0.01 93 1014.2
20260902023011 64 73 0.0 0.0 0.00 0.01 0.01 93 1014.2
20260902021514 64 70 0.0 0.0 0.00 0.01 0.01 92 1014.0
20260902020014 65 70 0.0 0.0 0.00 0.01 0.01 91 1013.7
20260902014520 65 118 0.0 0.0 0.00 0.01 0.01 91 1013.9
20260902013022 66 117 0.0 0.0 0.00 0.01 0.01 90 1014.1
20260902011509 66 116 0.0 0.0 0.00 0.01 0.01 88 1014.2
20260902010025 66 118 0.0 0.0 0.00 0.01 0.01 87 1014.0
20260902004509 66 116 0.0 0.0 0.00 0.01 0.01 87 1014.0
20260902003013 67 116 0.0 0.0 0.00 0.01 0.01 86 1014.0
20260902001520 67 117 0.0 0.0 0.00 0.01 0.01 85 1013.9
20260902000019 67 116 0.0 0.0 0.00 0.01 0.01 85 1013.9
20260901234523 67 118 0.0 0.0 0.00 0.01 0.01 84 1013.7
20260901233020 68 117 0.0 0.0 0.00 0.01 0.01 84 1013.9
20260901231513 68 116 0.0 0.0 0.00 0.01 0.01 83 1013.9
20260901230031 69 129 0.0 0.0 0.00 0.01 0.01 82 1013.9
20260901224505 69 128 0.0 0.0 0.00 0.01 0.01 81 1013.9
20260901223011 70 128 0.0 0.0 0.00 0.01 0.01 79 1013.9
20260901221525 71 128 0.0 0.0 0.00 0.01 0.01 77 1013.6
20260901220011 72 129 0.0 0.0 0.00 0.01 0.01 76 1013.5
20260901214526 72 93 0.0 0.0 0.00 0.01 0.01 73 1013.3
20260901213018 72 135 0.0 5.0 0.00 0.01 0.01 71 1013.1
20260901211523 72 116 0.0 7.0 0.00 0.01 0.01 71 1013.0
20260901210011 73 96 0.0 2.0 0.00 0.01 0.01 71 1013.3
20260901204521 73 147 0.0 4.0 0.00 0.01 0.01 71 1013.4
20260901203010 73 106 0.0 1.0 0.00 0.01 0.01 69 1013.2
20260901201519 73 106 0.0 7.0 0.00 0.01 0.01 69 1013.0
20260901200016 73 114 1.0 7.0 0.00 0.01 0.01 68 1013.0
20260901194520 73 123 2.0 8.0 0.00 0.01 0.01 68 1013.1
20260901193010 72 112 0.0 4.0 0.00 0.01 0.01 69 1013.1
20260901191520 72 91 0.0 10.0 0.00 0.01 0.01 70 1013.2
20260901190010 72 86 0.0 2.0 0.00 0.01 0.01 70 1013.4
20260901184518 72 122 0.0 0.0 0.00 0.01 0.01 68 1013.4
20260901183007 72 166 2.0 7.0 0.00 0.01 0.01 68 1013.3
20260901181519 72 102 0.0 5.0 0.00 0.01 0.01 73 1013.4
20260901180004 72 98 0.0 0.0 0.00 0.01 0.01 74 1013.4
20260901174519 72 119 0.0 5.0 0.00 0.01 0.01 72 1013.4
20260901173008 72 108 0.0 6.0 0.00 0.01 0.01 72 1013.5
20260901171518 72 100 1.0 8.0 0.00 0.01 0.01 73 1013.5
20260901170008 71 129 0.0 6.0 0.00 0.01 0.01 73 1013.5
20260901164513 71 74 0.0 0.0 0.00 0.01 0.01 73 1013.6
20260901163022 72 118 0.0 0.0 0.00 0.01 0.01 72 1013.7
20260901161509 71 71 0.0 0.0 0.00 0.01 0.01 72 1014.0
20260901160018 70 95 0.0 6.0 0.00 0.01 0.01 75 1014.0
20260901154508 69 131 0.0 4.0 0.00 0.01 0.01 79 1014.0
20260901153030 68 341 0.0 4.0 0.00 0.01 0.01 80 1014.1
20260901151507 67 359 5.0 8.0 0.00 0.01 0.01 84 1014.3
20260901150014 66 64 0.0 0.0 0.00 0.01 0.01 83 1014.1
20260901144526 66 350 0.0 0.0 0.00 0.01 0.01 85 1014.2
20260901143010 65 125 0.0 0.0 0.00 0.01 0.01 85 1014.1
20260901141516 64 348 0.0 0.0 0.00 0.01 0.01 87 1014.1
20260901140022 63 354 0.0 0.0 0.00 0.01 0.01 89 1013.9
20260901134513 61 122 0.0 0.0 0.00 0.01 0.01 93 1014.2
20260901133001 61 108 0.0 0.0 0.00 0.01 0.01 94 1014.2
20260901131514 60 354 0.0 0.0 0.00 0.01 0.01 94 1014.5
20260901130023 60 4 0.0 0.0 0.00 0.01 0.01 95 1013.9
20260901124517 59 4 0.0 0.0 0.00 0.01 0.01 95 1014.1
20260901123031 59 8 0.0 0.0 0.00 0.01 0.01 95 1014.2
20260901121512 58 4 0.0 0.0 0.00 0.01 0.01 95 1014.4
20260901120022 58 4 0.0 0.0 0.00 0.01 0.01 95 1014.3
20260901114512 58 4 0.0 0.0 0.00 0.01 0.01 95 1014.3
20260901113023 58 4 0.0 0.0 0.00 0.01 0.01 95 1014.6
20260901111511 58 4 0.0 0.0 0.00 0.01 0.01 95 1014.7